MSC1568 HEMA-HEGN

Flight info

Callsign MSC1568
Flight time 0h 24m
Altitude 24000
Route SIBRI1A SIBRI V730 SOBEL SOBEL1A
Aircraft A320/M-SDE3FGHIRWY/LB1

Departure

Time 2026-04-30 11:13
Airport Marsa Alam International Airport (HEMA)

Arrival

Time 2026-04-30 11:37
Airport Hurghada International Airport (HEGN)
Time Latitude Longitude Altitude Speed Heading
2026-04-30 10:59 25.55428 34.59114 242 ft 0 kts 59°
2026-04-30 11:05 25.55427 34.59112 242 ft 0 kts 59°
2026-04-30 11:05 25.55425 34.59109 242 ft 1 kts 59°
2026-04-30 11:06 25.55422 34.59103 242 ft 1 kts 59°
2026-04-30 11:06 25.55418 34.59095 242 ft 2 kts 59°
2026-04-30 11:06 25.55410 34.59084 242 ft 2 kts 30°
2026-04-30 11:06 25.55398 34.59076 242 ft 2 kts 30°
2026-04-30 11:07 25.55386 34.59069 242 ft 2 kts 29°
2026-04-30 11:07 25.55374 34.59061 242 ft 2 kts 27°
2026-04-30 11:07 25.55371 34.59059 242 ft 0 kts
2026-04-30 11:08 25.55376 34.59063 242 ft 2 kts 43°
2026-04-30 11:09 25.55333 34.59091 242 ft 15 kts 158°
2026-04-30 11:09 25.55232 34.59133 242 ft 15 kts 178°
2026-04-30 11:09 25.55167 34.59063 247 ft 14 kts 237°
2026-04-30 11:09 25.55127 34.59002 254 ft 7 kts 209°
2026-04-30 11:10 25.55066 34.59023 254 ft 13 kts 148°
2026-04-30 11:10 25.54965 34.59087 255 ft 20 kts 152°
2026-04-30 11:10 25.54834 34.59170 252 ft 22 kts 152°
2026-04-30 11:10 25.54712 34.59249 249 ft 18 kts 152°
2026-04-30 11:11 25.54623 34.59236 251 ft 8 kts 226°
2026-04-30 11:11 25.54611 34.59214 252 ft 0 kts 241°
2026-04-30 11:11 25.54605 34.59201 252 ft 5 kts 241°
2026-04-30 11:11 25.54580 34.59141 254 ft 12 kts 257°
2026-04-30 11:12 25.54614 34.59082 254 ft 0 kts 330°
2026-04-30 11:12 25.54626 34.59074 254 ft 17 kts 330°
2026-04-30 11:12 25.54958 34.58862 257 ft 90 kts 330°
2026-04-30 11:12 25.55673 34.58401 263 ft 145 kts 329°
2026-04-30 11:13 25.56605 34.57817 737 ft 157 kts 333°
2026-04-30 11:13 25.57561 34.57222 1478 ft 158 kts 334°
2026-04-30 11:13 25.58543 34.56624 2055 ft 167 kts 334°
2026-04-30 11:13 25.59610 34.55972 2475 ft 183 kts 333°
2026-04-30 11:14 25.60766 34.55271 2920 ft 195 kts 331°
2026-04-30 11:14 25.62001 34.54517 3369 ft 212 kts 328°
2026-04-30 11:14 25.63342 34.53664 3904 ft 231 kts 327°
2026-04-30 11:14 25.64779 34.52732 4547 ft 248 kts 326°
2026-04-30 11:15 25.66290 34.51713 5214 ft 260 kts 326°
2026-04-30 11:15 25.67847 34.50655 6109 ft 265 kts 326°
2026-04-30 11:15 25.69442 34.49580 6723 ft 271 kts 326°
2026-04-30 11:15 25.71061 34.48509 6953 ft 272 kts 327°
2026-04-30 11:16 25.72699 34.47439 7755 ft 273 kts 327°
2026-04-30 11:16 25.74349 34.46368 8698 ft 276 kts 327°
2026-04-30 11:16 25.76013 34.45292 9604 ft 278 kts 327°
2026-04-30 11:16 25.77680 34.44216 10517 ft 278 kts 327°
2026-04-30 11:17 25.79369 34.43128 11235 ft 284 kts 329°
2026-04-30 11:17 25.81204 34.42254 11973 ft 292 kts 340°
2026-04-30 11:17 25.83215 34.41803 12725 ft 299 kts 352°
2026-04-30 11:17 25.85324 34.41827 13500 ft 307 kts
2026-04-30 11:18 25.87456 34.42206 14192 ft 314 kts
2026-04-30 11:18 25.91889 34.43000 15385 ft 327 kts
2026-04-30 11:18 25.94162 34.43403 15998 ft 333 kts
2026-04-30 11:19 25.96463 34.43787 16618 ft 336 kts
2026-04-30 11:19 25.98794 34.43827 17252 ft 334 kts 350°
2026-04-30 11:19 26.01079 34.43410 17903 ft 333 kts 340°
2026-04-30 11:19 26.03315 34.42719 18512 ft 335 kts 339°
2026-04-30 11:20 26.05574 34.42022 19082 ft 338 kts 339°
2026-04-30 11:20 26.07848 34.41320 19668 ft 340 kts 339°
2026-04-30 11:20 26.10140 34.40611 20227 ft 344 kts 339°
2026-04-30 11:20 26.12463 34.39890 20716 ft 349 kts 339°
2026-04-30 11:21 26.14821 34.39156 21209 ft 354 kts 339°
2026-04-30 11:21 26.17212 34.38416 21708 ft 359 kts 339°
2026-04-30 11:21 26.19635 34.37669 21914 ft 362 kts 339°
2026-04-30 11:21 26.22056 34.36927 21954 ft 361 kts 339°
2026-04-30 11:22 26.24472 34.36186 21956 ft 360 kts 339°
2026-04-30 11:22 26.26887 34.35444 21955 ft 360 kts 339°
2026-04-30 11:22 26.29303 34.34698 21951 ft 360 kts 339°
2026-04-30 11:22 26.31718 34.33947 21830 ft 360 kts 339°
2026-04-30 11:23 26.34126 34.33199 21569 ft 359 kts 339°
2026-04-30 11:23 26.36524 34.32457 21129 ft 357 kts 339°
2026-04-30 11:23 26.41276 34.30983 20235 ft 352 kts 339°
2026-04-30 11:24 26.43632 34.30250 19796 ft 350 kts 339°
2026-04-30 11:24 26.45968 34.29524 19348 ft 347 kts 339°
2026-04-30 11:24 26.48284 34.28803 18912 ft 344 kts 340°
2026-04-30 11:25 26.52871 34.27376 18020 ft 340 kts 340°
2026-04-30 11:25 26.55147 34.26671 17545 ft 338 kts 340°
2026-04-30 11:25 26.59646 34.25274 16633 ft 333 kts 340°
2026-04-30 11:26 26.63371 34.24112 15888 ft 330 kts 341°
2026-04-30 11:26 26.66297 34.23198 15315 ft 329 kts 341°
2026-04-30 11:26 26.67779 34.22735 15021 ft 328 kts 341°
2026-04-30 11:27 26.69977 34.22049 14600 ft 327 kts 341°
2026-04-30 11:27 26.72167 34.21364 14175 ft 326 kts 341°
2026-04-30 11:27 26.74343 34.20681 13839 ft 323 kts 341°
2026-04-30 11:27 26.76503 34.20006 13483 ft 322 kts 342°
2026-04-30 11:28 26.80823 34.18660 12509 ft 323 kts 342°
2026-04-30 11:28 26.82966 34.17937 12007 ft 320 kts 336°
2026-04-30 11:28 26.84903 34.16832 11514 ft 306 kts 324°
2026-04-30 11:29 26.86634 34.15527 11036 ft 295 kts 324°
2026-04-30 11:29 26.88312 34.14263 10562 ft 286 kts 324°
2026-04-30 11:29 26.91558 34.11817 9618 ft 278 kts 324°
2026-04-30 11:30 26.94731 34.09404 8599 ft 276 kts 320°
2026-04-30 11:30 26.96055 34.07860 8103 ft 275 kts 304°
2026-04-30 11:30 26.96944 34.05939 7600 ft 272 kts 292°
2026-04-30 11:31 26.97663 34.04045 7142 ft 264 kts 293°
2026-04-30 11:31 26.98387 34.02165 6702 ft 254 kts 293°
2026-04-30 11:31 26.99068 34.00395 6347 ft 241 kts 293°
2026-04-30 11:31 26.99716 33.98707 5983 ft 231 kts 293°
2026-04-30 11:32 27.00335 33.97087 5602 ft 221 kts 294°
2026-04-30 11:32 27.00931 33.95526 5248 ft 215 kts 294°
2026-04-30 11:32 27.01514 33.94007 4888 ft 210 kts 294°
2026-04-30 11:33 27.02643 33.91051 4117 ft 203 kts 295°
2026-04-30 11:33 27.03192 33.89607 3751 ft 200 kts 295°
2026-04-30 11:33 27.03735 33.88177 3414 ft 197 kts 296°
2026-04-30 11:33 27.04273 33.86763 3070 ft 196 kts 296°
2026-04-30 11:34 27.04811 33.85364 2727 ft 196 kts 300°
2026-04-30 11:34 27.05625 33.84142 2356 ft 199 kts 320°
2026-04-30 11:34 27.06793 33.83374 1951 ft 189 kts 341°
2026-04-30 11:34 27.08007 33.83008 1701 ft 171 kts 344°
2026-04-30 11:35 27.09097 33.82685 1489 ft 154 kts 344°
2026-04-30 11:35 27.10082 33.82394 1282 ft 141 kts 344°
2026-04-30 11:35 27.11008 33.82121 1085 ft 135 kts 344°
2026-04-30 11:35 27.11912 33.81853 906 ft 135 kts 347°
2026-04-30 11:36 27.12810 33.81588 726 ft 132 kts 346°
2026-04-30 11:36 27.13701 33.81325 562 ft 132 kts 347°
2026-04-30 11:36 27.14586 33.81058 394 ft 131 kts 348°
2026-04-30 11:36 27.15468 33.80796 217 ft 130 kts 351°
2026-04-30 11:37 27.16340 33.80541 63 ft 128 kts 352°
2026-04-30 11:37 27.17127 33.80315 49 ft 97 kts 344°
2026-04-30 11:37 27.17615 33.80169 55 ft 48 kts 346°
2026-04-30 11:37 27.17883 33.80090 52 ft 34 kts 345°
2026-04-30 11:38 27.18104 33.80020 51 ft 31 kts 345°
2026-04-30 11:38 27.18302 33.79965 49 ft 27 kts 347°
2026-04-30 11:38 27.18447 33.79964 49 ft 13 kts 62°
2026-04-30 11:38 27.18486 33.80063 50 ft 15 kts 47°
2026-04-30 11:39 27.18563 33.80130 52 ft 11 kts 56°
2026-04-30 11:39 27.18583 33.80194 50 ft 8 kts 74°
2026-04-30 11:39 27.18598 33.80260 54 ft 10 kts 75°
2026-04-30 11:39 27.18620 33.80350 56 ft 13 kts 74°
2026-04-30 11:40 27.18698 33.80378 54 ft 14 kts 346°
2026-04-30 11:40 27.18783 33.80351 56 ft 5 kts 346°
2026-04-30 11:40 27.18813 33.80372 50 ft 6 kts 62°
2026-04-30 11:40 27.18824 33.80413 56 ft 2 kts 76°
2026-04-30 11:41 27.18826 33.80423 57 ft 0 kts 76°